#timestamp,LO_Frequency,Hit,StdDev 
1618017875.4,286047026.5,P
1618017895.2,286047023.9,P
1618017915.0,286047023.7,P
1618017916.0,286047023.7,Y
1618017935.8,286047000.2,P
1618017955.6,286047000.1,N
1618017975.5,286047000.0,N
1618017995.3,286047002.3,N
1618018015.1,286047001.5,N
1618018035.9,286047001.7,N
1618018055.7,286047004.2,N
1618018075.6,286047004.0,N
1618018095.4,286047004.0,N
1618018115.2,286047003.8,N
1618018135.1,286047003.6,N
1618018136.0,286047003.6,N
1618018155.8,286047005.5,N
1618018175.6,286047004.2,N
1618018195.5,286047005.5,N
1618018215.3,286047005.6,N
1618018235.2,286047004.9,N
1618018255.9,286047007.6,N
1618018275.7,286047006.1,N
1618018295.6,286047008.7,N
1618018315.4,286047009.0,N
1618018335.2,286047006.2,N
1618018355.1,286047010.6,N
1618018356.0,286047010.6,N
1618018375.8,286047009.7,N
1618018395.7,286047010.0,N
1618018415.5,286047013.9,N
1618018435.3,286047012.8,N
1618018455.2,286047013.1,N
1618018475.9,286047012.5,N
1618018495.7,286047012.5,Y
1618018515.6,286047008.2,P
1618018535.4,286047009.5,P
1618018555.3,286047010.3,P
1618018575.1,286047010.4,Y
1618018576.0,286047010.4,P
1618018595.8,286047001.9,N
1618018615.7,286047003.7,N
1618018635.5,286047003.5,N
1618018655.3,286047004.4,N
1618018675.2,286047003.3,N
1618018695.0,286047005.2,N
1618018695.9,286047005.2,N
1618018715.8,286047004.8,N
1618018735.6,286047007.2,N
1618018755.4,286047004.7,N
1618018775.3,286047004.7,N
1618018795.1,286047004.7,N
1618018815.9,286047007.3,Y
1618018835.7,286047004.0,P
1618018855.5,286047005.8,P
1618018875.4,286047004.1,P
1618018895.2,286047005.6,Y
1618018915.0,286047002.7,P
1618018915.9,286047002.7,N
1618018935.8,286047002.7,N
1618018955.6,286047002.1,N
1618018975.5,286047002.0,N
1618018995.3,286047002.5,N
1618019015.1,286047001.7,N
1618019035.9,286047003.9,Y
1618019055.7,286047001.0,P
1618019075.5,286047000.0,N
1618019095.4,286047002.6,N
1618019115.2,286047003.9,Y
1618019135.1,286046999.9,P
1618019136.0,286046999.9,N
1618019155.8,286047002.3,N
1618019175.6,286047001.8,N
1618019195.5,286047004.0,Y
1618019215.3,286047005.6,P
1618019235.2,286047003.3,N
1618019255.0,286047004.8,N
1618019255.9,286047004.8,N
1618019275.7,286047005.0,Y
1618019295.6,286046999.8,P
1618019315.4,286047002.3,N
1618019335.3,286047001.7,N
1618019355.1,286047002.2,N
1618019356.0,286047002.2,N
1618019375.8,286047002.2,N
1618019395.7,286047002.2,N
1618019415.5,286047001.4,N
1618019435.4,286047003.7,Y
1618019455.2,286047003.9,P
1618019475.0,286047001.6,N
1618019475.9,286047001.6,N
1618019495.8,286047004.4,Y
1618019515.6,286046998.2,P
1618019535.4,286047001.1,N
1618019555.3,286047000.6,N
1618019575.1,286047000.2,N
1618019595.9,286046999.8,N
1618019615.7,286047001.6,N
1618019635.5,286047002.8,N
1618019655.4,286047000.1,N
1618019675.2,286047002.3,N
1618019695.0,286047002.2,N
1618019695.9,286047002.2,N
1618019715.8,286047002.8,N
1618019735.6,286047002.7,N
1618019755.5,286047002.1,N
1618019775.3,286047002.1,N
1618019795.1,286047000.1,N
1618019815.9,286047003.9,Y
1618019835.7,286047004.0,P
1618019855.5,286047003.2,N
1618019875.4,286047003.8,P
1618019895.2,286047001.3,N
1618019915.1,286047003.6,Y
1618019916.0,286047003.6,P
1618019935.8,286047000.6,N
1618019955.6,286047001.1,N
1618019975.5,286047000.6,N
1618019995.3,286047000.0,N
